This demonstration page uses our WeatherBlox Daily Observations layout. Learn more.

Left ArrowRight Arrow

Hourly Observations for April 10, 2021

Temp ( °F °C ) Dew Point ( °F °C ) Humidity (%) Winds ( mph kmh ) Pressure ( in mb ) Visibility ( mi km ) Precip ( " mm )
12:53 am 00:53 Clear 56 13.3 52 11.1 87 87 E 5 7 29.77 1008 10 16 N/A
1:53 am 01:53 Partly Cloudy 53 11.7 51 10.6 93 93 N N/A 29.78 1009 10 16 N/A
2:53 am 02:53 Clear 52 11.1 51 10.6 97 97 N N/A 29.78 1009 10 16 N/A
3:53 am 03:53 Clear 55 12.8 51 10.6 87 87 ESE 3 6 29.76 1008 10 16 N/A
4:53 am 04:53 Clear 56 13.3 51 10.6 84 84 ENE 5 7 29.75 1008 10 16 N/A
5:53 am 05:53 Clear 56 13.3 50 10 81 81 E 5 7 29.73 1007 10 16 N/A
6:53 am 06:53 Clear 58 14.4 49 9.4 72 72 E 5 7 29.73 1007 10 16 N/A
7:53 am 07:53 Sunny 58 14.4 51 10.6 78 78 ENE 3 6 29.73 1007 10 16 N/A
11:53 am 11:53 Cloudy 70 21.1 54 12.2 57 57 S 9 15 29.68 1005 10 16 N/A
12:53 pm 12:53 Cloudy with Light Rain 65 18.3 59 15 81 81 SSW 8 13 29.67 1005 9 14 0.00 0.00
1:48 pm 13:48 Cloudy with Rain 63 17 61 16 94 94 VRB 5 7 29.64 1004 2 3 0.09 2.29
1:49 pm 13:49 Cloudy with Rain 63 17.2 60 15.6 90 90 VRB 6 9 29.65 1004 2 3 0.09 2.29
1:58 pm 13:58 Cloudy with Light Rain 63 17.2 60 15.6 90 90 VRB 3 6 29.63 1003 3 5 0.02 0.51
2:53 pm 14:53 Cloudy with Light Rain 63 17.2 61 16.1 93 93 SE 6 9 29.61 1003 3 5 0.11 2.79
3:53 pm 15:53 Cloudy with Light Rain 62 16.7 60 15.6 93 93 VRB 6 9 29.56 1001 4 6 0.06 1.52
4:53 pm 16:53 Cloudy with Rain 62 16.7 60 15.6 93 93 VRB 3 6 29.52 1000 3 4 0.08 2.03
5:04 pm 17:04 Cloudy with Light Rain 62 16.7 60 15.6 93 93 VRB 6 9 29.50 999 4 6 0.02 0.51
5:53 pm 17:53 Cloudy with Light Rain 61 16.1 60 15.6 97 97 VRB 5 7 29.49 999 5 8 0.09 2.29
6:17 pm 18:17 Cloudy with Light Rain 61 16.1 59 15 93 93 VRB 5 7 29.47 998 7 11 0.02 0.51
6:39 pm 18:39 Cloudy with Light Rain 61 16.1 59 15 93 93 VRB 7 11 29.46 998 5 8 0.03 0.76
6:53 pm 18:53 Cloudy with Light Rain 61 16.1 59 15 93 93 VRB 3 6 29.47 998 6 10 0.04 1.02
7:04 pm 19:04 Cloudy with Light Rain 61 16.1 59 15 93 93 S 8 13 29.47 998 2 3 0.02 0.51
7:06 pm 19:06 Cloudy with Rain 61 16.1 59 15 93 93 SSW 8 13 29.47 998 1 2 0.06 1.52
7:14 pm 19:14 Cloudy with Light Rain 61 16.1 59 15 93 93 VRB 5 7 29.47 998 1 2 0.08 2.03
7:19 pm 19:19 Cloudy with Light Rain 61 16.1 59 15 93 93 VRB 5 7 29.47 998 4 6 0.08 2.03
7:53 pm 19:53 Mostly Cloudy 61 16.1 59 15 93 93 VRB 3 6 29.46 998 10 16 0.08 2.03
8:48 pm 20:48 Mostly Cloudy 61 16 59 15 94 94 N N/A 29.47 998 10 16 N/A
8:53 pm 20:53 Mostly Cloudy 60 15.6 59 15 96 96 N N/A 29.47 998 10 16 N/A
9:19 pm 21:19 Partly Cloudy 60 15.6 58 14.4 93 93 N N/A 29.48 998 10 16 N/A
9:53 pm 21:53 Mostly Cloudy 60 15.6 59 15 96 96 VRB 3 6 29.48 998 10 16 N/A
10:19 pm 22:19 Cloudy with Light Rain 57 13.9 54 12.2 90 90 W 9 15 29.50 999 8 13 0.01 0.25
10:31 pm 22:31 Cloudy 57 13.9 54 12.2 90 90 W 5 7 29.50 999 10 16 0.01 0.25
10:53 pm 22:53 Cloudy 57 13.9 55 12.8 93 93 N N/A 29.49 999 10 16 0.01 0.25
11:23 pm 23:23 Mostly Clear with Mist and Fog 54 12.2 53 11.7 97 97 N N/A 29.50 999 2 3 0.01 0.25
11:32 pm 23:32 Clear with Mist and Fog 53 11.7 52 11.1 96 96 N N/A 29.50 999 3 5 0.01 0.25
11:45 pm 23:45 Clear with Mist and Fog 52 11.1 51 10.6 97 97 N N/A 29.51 999 2 3 0.01 0.25
11:53 pm 23:53 Clear 52 11.1 51 10.6 97 97 N N/A 29.49 999 9 14 0.01 0.25

Powered by AerisWeather